Regional Weather Roundup
Issued by NWS

Home | Current Version | Previous Version | Graphics & Text | Print | Product List | Glossary On
Versions: 1 2 3 4 5 6 7 8 9 10 11 12 13 14 15 16 17 18 19 20 21 22 23 24 25 26 27
000
ASUS45 KCYS 251510
RWRWY

WYOMING REGIONAL WEATHER ROUNDUP
NATIONAL WEATHER SERVICE CHEYENNE WY
900 AM MDT TUE APR 25 2017

NOTE:  "FAIR" INDICATES FEW OR NO CLOUDS BELOW 12,000 FEET
WITH NO SIGNIFICANT WEATHER AND/OR OBSTRUCTIONS TO VISIBILITY.

WYZ001-251600-
YELLOWSTONE NATIONAL PARK

CITY           SKY/WX    TMP DP  RH WIND       PRES   REMARKS
LK YELLOWSTONE   N/A     29  28  96 E3        29.71R
W YELLOWSTONE  NOT AVBL

$$
WYZ002>013-054>058-071-098>099-251600-
NORTHERN WYOMING

CITY           SKY/WX    TMP DP  RH WIND       PRES   REMARKS
JACKSON        FLURRIES  34  32  93 S6        29.69R WCI  29
CODY           FLURRIES  34  32  92 N15G22    29.74R WCI  24
GREYBULL       CLOUDY    38  29  70 N33G41    29.63R WCI  25
WORLAND        CLOUDY    40  36  86 N25G32    29.62R WCI  29
SHERIDAN       HVY SNOW  32  31  96 N13       29.76R VSB 1/4 WCI  22
BUFFALO        NOT AVBL
GILLETTE       LGT SNOW  27 N/A N/A N21       29.65R WCI  13
HULETT         LGT SNOW  28  27  93 NE15G21   29.69R WCI  17
NEWCASTLE      RAIN      36  36 100 SE10G17   29.59R WCI  28

$$
WYZ014>020-022>026-101>103-251600-
CENTRAL WYOMING

CITY           SKY/WX    TMP DP  RH WIND       PRES   REMARKS
BIG PINEY      FAIR      35  28  75 CALM      29.69R
PINEDALE       CLOUDY    32  30  93 NW3       29.69S
DUBOIS         CLOUDY    36  23  60 W16       29.63S WCI  26
LANDER         CLOUDY    39  33  79 CALM      29.63R
RIVERTON       LGT RAIN  36  34  92 N10       29.65R WCI  28
CASPER         LGT SNOW  32  30  92 N15G23    29.62R FOG     WCI  22
DOUGLAS        FAIR      36  31  82 W21       29.59R WCI  25

$$
WYZ021-027>030-104>119-251600-
SOUTHERN WYOMING

CITY           SKY/WX    TMP DP  RH WIND       PRES   REMARKS
EVANSTON       CLOUDY    32  32 100 SW7       29.74R WCI  26
KEMMERER         N/A     32  28  86 NW13G20   29.74R WCI  22
FORT BRIDGER   PTSUNNY   35  35 100 W7        29.75F WCI  29
ROCK SPRINGS   FAIR      38  30  73 W15       29.69R WCI  29
DIXON            N/A     38  29  70 SW6       29.72R WCI  33
RAWLINS        FAIR      38  28  67 W21G39    29.61F WCI  28
SARATOGA       FAIR      37  30  75 W20       29.64F WCI  27
LARAMIE        FAIR      35  25  66 W22       29.59F WCI  23
CHEYENNE       FAIR      43  24  47 NW24G30   29.57R
TORRINGTON     FAIR      50  36  58 NW13      29.53F
PINE BLUFFS    FAIR      46  32  57 NW8       29.57S

$$




USA.gov is the U.S. government's official web portal to all federal, state and local government web resources and services.